Time,TemperatureF,DewpointF,PressureIn,WindDirection,WindDirectionDegrees,WindSpeedMPH,WindSpeedGustMPH,Humidity,HourlyPrecipIn,Conditions,Clouds,dailyrainin,SolarRadiationWatts/m^2,SoftwareType,DateUTC
2013-06-14 00:01:00,74.0,72.0,-100.00,SSW,211,6.0,-999.0,94,0.00,,,-99.99,0.000000,,2013-06-14 04:01:00,
2013-06-14 00:12:00,74.0,72.0,-100.00,SW,217,6.0,-999.0,95,0.00,,,-99.99,0.000000,,2013-06-14 04:12:00,
2013-06-14 00:22:00,74.0,72.0,-100.00,SW,222,6.0,-999.0,95,0.00,,,-99.99,0.000000,,2013-06-14 04:22:00,
2013-06-14 00:33:00,74.0,72.0,-100.00,SW,222,6.0,-999.0,95,0.00,,,-99.99,0.000000,,2013-06-14 04:33:00,
2013-06-14 00:43:00,74.0,72.0,-100.00,SSW,212,5.0,-999.0,95,0.00,,,-99.99,0.000000,,2013-06-14 04:43:00,
2013-06-14 00:53:00,74.0,72.0,-100.00,SSW,212,5.0,-999.0,95,0.00,,,-99.99,0.000000,,2013-06-14 04:53:00,
2013-06-14 01:02:00,74.0,72.0,-100.00,SSW,212,5.0,-999.0,95,0.00,,,-99.99,0.000000,,2013-06-14 05:02:00,
2013-06-14 01:11:00,74.0,72.0,-100.00,SW,215,6.0,-999.0,95,0.00,,,-99.99,0.000000,,2013-06-14 05:11:00,
2013-06-14 01:22:00,74.0,72.0,-100.00,SW,233,4.0,-999.0,95,0.00,,,-99.99,0.000000,,2013-06-14 05:22:00,
2013-06-14 01:34:00,74.0,72.0,-100.00,SW,233,4.0,-999.0,95,0.00,,,-99.99,0.000000,,2013-06-14 05:34:00,
2013-06-14 01:43:00,73.0,72.0,-100.00,WSW,241,4.0,-999.0,96,0.00,,,-99.99,0.000000,,2013-06-14 05:43:00,
2013-06-14 01:52:00,73.0,72.0,-100.00,WSW,241,4.0,-999.0,96,0.00,,,-99.99,0.000000,,2013-06-14 05:52:00,
2013-06-14 02:02:00,73.0,72.0,-100.00,WSW,241,4.0,-999.0,96,0.00,,,-99.99,0.000000,,2013-06-14 06:02:00,
2013-06-14 02:12:00,73.0,72.0,-100.00,SW,236,5.0,-999.0,96,0.00,,,-99.99,0.000000,,2013-06-14 06:12:00,
2013-06-14 02:22:00,73.0,72.0,-100.00,SW,218,5.0,-999.0,96,0.00,,,-99.99,0.000000,,2013-06-14 06:22:00,
2013-06-14 02:33:00,73.0,72.0,-100.00,SW,222,6.0,-999.0,96,0.00,,,-99.99,0.000000,,2013-06-14 06:33:00,
2013-06-14 02:43:00,73.0,72.0,-100.00,SW,219,6.0,-999.0,96,0.00,,,-99.99,0.000000,,2013-06-14 06:43:00,
2013-06-14 02:52:00,73.0,72.0,-100.00,SW,219,6.0,-999.0,96,0.00,,,-99.99,0.000000,,2013-06-14 06:52:00,
2013-06-14 03:02:00,73.0,72.0,-100.00,SW,218,5.0,-999.0,96,0.00,,,-99.99,0.000000,,2013-06-14 07:02:00,
2013-06-14 03:12:00,73.0,72.0,-100.00,SW,216,6.0,-999.0,96,0.00,,,-99.99,0.000000,,2013-06-14 07:12:00,
2013-06-14 03:22:00,73.0,72.0,-100.00,SW,216,6.0,-999.0,96,0.00,,,-99.99,0.000000,,2013-06-14 07:22:00,
2013-06-14 03:33:00,73.0,72.0,-100.00,SW,220,6.0,-999.0,96,0.00,,,-99.99,0.000000,,2013-06-14 07:33:00,
2013-06-14 03:43:00,73.0,72.0,-100.00,SW,228,6.0,-999.0,97,0.00,,,-99.99,0.000000,,2013-06-14 07:43:00,
2013-06-14 03:53:00,73.0,72.0,-100.00,SW,228,6.0,-999.0,97,0.00,,,-99.99,0.000000,,2013-06-14 07:53:00,
2013-06-14 04:02:00,73.0,72.0,-100.00,SW,228,6.0,-999.0,97,0.00,,,-99.99,0.000000,,2013-06-14 08:02:00,
2013-06-14 04:12:00,73.0,72.0,-100.00,SW,217,6.0,-999.0,97,0.00,,,-99.99,0.000000,,2013-06-14 08:12:00,
2013-06-14 04:23:00,73.0,72.0,-100.00,SW,217,6.0,-999.0,97,0.00,,,-99.99,0.000000,,2013-06-14 08:23:00,
2013-06-14 04:33:00,73.0,72.0,-100.00,SW,217,6.0,-999.0,97,0.00,,,-99.99,0.000000,,2013-06-14 08:33:00,
2013-06-14 04:43:00,73.0,72.0,-100.00,SW,235,5.0,-999.0,97,0.00,,,-99.99,0.000000,,2013-06-14 08:43:00,
2013-06-14 04:53:00,73.0,72.0,-100.00,SW,235,5.0,-999.0,97,0.00,,,-99.99,0.000000,,2013-06-14 08:53:00,
2013-06-14 05:02:00,73.0,72.0,-100.00,WSW,248,4.0,-999.0,97,0.00,,,-99.99,0.000000,,2013-06-14 09:02:00,
2013-06-14 05:12:00,73.0,72.0,-100.00,WSW,248,4.0,-999.0,97,0.00,,,-99.99,0.000000,,2013-06-14 09:12:00,
2013-06-14 05:22:00,72.0,72.0,-100.00,West,275,4.0,-999.0,97,0.00,,,-99.99,0.000000,,2013-06-14 09:22:00,
2013-06-14 05:33:00,72.0,72.0,-100.00,West,275,4.0,-999.0,97,0.00,,,-99.99,0.000000,,2013-06-14 09:33:00,
2013-06-14 05:43:00,72.0,72.0,-100.00,WSW,257,4.0,-999.0,97,0.00,,,-99.99,0.000000,,2013-06-14 09:43:00,
2013-06-14 05:53:00,72.0,72.0,-100.00,WSW,248,4.0,-999.0,97,0.00,,,-99.99,0.000000,,2013-06-14 09:53:00,
2013-06-14 06:01:00,72.0,72.0,-100.00,WSW,248,4.0,-999.0,97,0.00,,,-99.99,0.000000,,2013-06-14 10:01:00,
2013-06-14 06:12:00,72.0,72.0,-100.00,WSW,248,4.0,-999.0,97,0.00,,,-99.99,0.000000,,2013-06-14 10:12:00,
2013-06-14 06:22:00,72.0,72.0,-100.00,WSW,257,3.0,-999.0,97,0.00,,,-99.99,0.000000,,2013-06-14 10:22:00,
2013-06-14 06:34:00,72.0,72.0,-100.00,SW,230,3.0,-999.0,97,0.00,,,-99.99,0.100000,,2013-06-14 10:34:00,
2013-06-14 06:43:00,73.0,72.0,-100.00,SW,225,4.0,-999.0,97,0.00,,,-99.99,2.300000,,2013-06-14 10:43:00,
2013-06-14 06:53:00,73.0,72.0,-100.00,SW,225,4.0,-999.0,97,0.00,,,-99.99,2.300000,,2013-06-14 10:53:00,
2013-06-14 07:02:00,73.0,72.0,-100.00,SW,225,4.0,-999.0,97,0.00,,,-99.99,2.300000,,2013-06-14 11:02:00,
2013-06-14 07:11:00,73.0,72.0,-100.00,SW,225,4.0,-999.0,97,0.00,,,-99.99,2.300000,,2013-06-14 11:11:00,
2013-06-14 07:23:00,73.0,72.0,-100.00,SW,229,4.0,-999.0,97,0.00,,,-99.99,32.500000,,2013-06-14 11:23:00,
2013-06-14 07:32:00,73.0,72.0,-100.00,SW,229,4.0,-999.0,97,0.00,,,-99.99,32.500000,,2013-06-14 11:32:00,
2013-06-14 07:43:00,74.0,73.0,-100.00,SW,218,4.0,-999.0,97,0.00,,,-99.99,124.500000,,2013-06-14 11:43:00,
2013-06-14 07:52:00,74.0,73.0,-100.00,SW,218,4.0,-999.0,97,0.00,,,-99.99,124.500000,,2013-06-14 11:52:00,
2013-06-14 08:02:00,74.0,73.0,-100.00,SW,218,4.0,-999.0,97,0.00,,,-99.99,124.500000,,2013-06-14 12:02:00,
2013-06-14 08:12:00,74.0,73.0,-100.00,SW,214,5.0,-999.0,97,0.00,,,-99.99,172.399994,,2013-06-14 12:12:00,
2013-06-14 08:22:00,75.0,74.0,-100.00,WSW,237,5.0,-999.0,97,0.00,,,-99.99,215.899994,,2013-06-14 12:22:00,
2013-06-14 08:33:00,75.0,74.0,-100.00,WSW,237,5.0,-999.0,97,0.00,,,-99.99,215.899994,,2013-06-14 12:33:00,
2013-06-14 08:43:00,76.0,75.0,-100.00,WSW,237,5.0,-999.0,97,0.00,,,-99.99,271.500000,,2013-06-14 12:43:00,
2013-06-14 08:52:00,76.0,75.0,-100.00,WSW,237,5.0,-999.0,97,0.00,,,-99.99,271.500000,,2013-06-14 12:52:00,
2013-06-14 09:02:00,76.0,75.0,-100.00,WSW,237,5.0,-999.0,97,0.00,,,-99.99,271.500000,,2013-06-14 13:02:00,
2013-06-14 09:11:00,78.0,77.0,-100.00,WSW,251,8.0,-999.0,96,0.00,,,-99.99,393.600006,,2013-06-14 13:11:00,
2013-06-14 09:22:00,78.0,77.0,-100.00,WSW,252,7.0,-999.0,96,0.00,,,-99.99,387.899994,,2013-06-14 13:22:00,
2013-06-14 09:33:00,78.0,77.0,-100.00,WSW,252,7.0,-999.0,96,0.00,,,-99.99,387.899994,,2013-06-14 13:33:00,
2013-06-14 09:43:00,80.0,78.0,-100.00,West,259,7.0,-999.0,93,0.00,,,-99.99,491.100006,,2013-06-14 13:43:00,
2013-06-14 09:53:00,80.0,78.0,-100.00,West,259,7.0,-999.0,93,0.00,,,-99.99,491.100006,,2013-06-14 13:53:00,
2013-06-14 10:02:00,80.0,78.0,-100.00,West,259,7.0,-999.0,93,0.00,,,-99.99,491.100006,,2013-06-14 14:02:00,
2013-06-14 10:11:00,81.0,77.0,-100.00,West,261,10.0,-999.0,89,0.00,,,-99.99,486.799988,,2013-06-14 14:11:00,
2013-06-14 10:22:00,82.0,77.0,-100.00,West,269,9.0,-999.0,84,0.00,,,-99.99,564.599976,,2013-06-14 14:22:00,
2013-06-14 10:34:00,83.0,76.0,-100.00,West,280,9.0,-999.0,78,0.00,,,-99.99,605.200012,,2013-06-14 14:34:00,
2013-06-14 10:43:00,84.0,75.0,-100.00,West,265,9.0,-999.0,75,0.00,,,-99.99,633.799988,,2013-06-14 14:43:00,
2013-06-14 10:52:00,84.0,75.0,-100.00,West,265,9.0,-999.0,75,0.00,,,-99.99,633.799988,,2013-06-14 14:52:00,
2013-06-14 11:01:00,84.0,75.0,-100.00,West,265,9.0,-999.0,75,0.00,,,-99.99,633.799988,,2013-06-14 15:01:00,
2013-06-14 11:11:00,84.0,74.0,-100.00,West,261,9.0,-999.0,73,0.00,,,-99.99,444.299988,,2013-06-14 15:11:00,
2013-06-14 11:23:00,84.0,74.0,-100.00,West,270,8.0,-999.0,72,0.00,,,-99.99,484.500000,,2013-06-14 15:23:00,
2013-06-14 11:33:00,85.0,74.0,-100.00,WNW,282,10.0,-999.0,70,0.00,,,-99.99,646.799988,,2013-06-14 15:33:00,
2013-06-14 11:44:00,86.0,74.0,-100.00,West,272,8.0,-999.0,67,0.00,,,-99.99,619.900024,,2013-06-14 15:44:00,
2013-06-14 11:53:00,86.0,74.0,-100.00,West,272,8.0,-999.0,67,0.00,,,-99.99,619.900024,,2013-06-14 15:53:00,
2013-06-14 12:01:00,86.0,74.0,-100.00,West,272,8.0,-999.0,67,0.00,,,-99.99,619.900024,,2013-06-14 16:01:00,
2013-06-14 12:11:00,87.0,73.0,-100.00,West,273,10.0,-999.0,64,0.00,,,-99.99,759.000000,,2013-06-14 16:11:00,
2013-06-14 12:23:00,87.0,73.0,-100.00,West,267,10.0,-999.0,62,0.00,,,-99.99,769.000000,,2013-06-14 16:23:00,
2013-06-14 12:33:00,87.0,73.0,-100.00,West,267,10.0,-999.0,62,0.00,,,-99.99,769.000000,,2013-06-14 16:33:00,
2013-06-14 12:43:00,88.0,73.0,-100.00,West,266,10.0,-999.0,61,0.00,,,-99.99,683.400024,,2013-06-14 16:43:00,
2013-06-14 12:53:00,88.0,73.0,-100.00,West,266,10.0,-999.0,61,0.00,,,-99.99,683.400024,,2013-06-14 16:53:00,
2013-06-14 13:02:00,88.0,73.0,-100.00,West,266,10.0,-999.0,61,0.00,,,-99.99,683.400024,,2013-06-14 17:02:00,
2013-06-14 13:12:00,88.0,74.0,-100.00,WNW,289,10.0,-999.0,63,0.00,,,-99.99,786.000000,,2013-06-14 17:12:00,
2013-06-14 13:22:00,88.0,73.0,-100.00,West,263,10.0,-999.0,62,0.00,,,-99.99,941.000000,,2013-06-14 17:22:00,
2013-06-14 13:34:00,88.0,73.0,-100.00,West,263,10.0,-999.0,62,0.00,,,-99.99,941.000000,,2013-06-14 17:34:00,
2013-06-14 13:43:00,88.0,73.0,-100.00,West,279,10.0,-999.0,61,0.00,,,-99.99,755.000000,,2013-06-14 17:43:00,
2013-06-14 13:53:00,88.0,73.0,-100.00,West,279,10.0,-999.0,61,0.00,,,-99.99,755.000000,,2013-06-14 17:53:00,
2013-06-14 14:02:00,88.0,73.0,-100.00,West,279,10.0,-999.0,61,0.00,,,-99.99,755.000000,,2013-06-14 18:02:00,
2013-06-14 14:11:00,89.0,70.0,-100.00,West,281,10.0,-999.0,53,0.00,,,-99.99,907.000000,,2013-06-14 18:11:00,
2013-06-14 14:22:00,89.0,70.0,-100.00,West,279,11.0,-999.0,53,0.00,,,-99.99,757.000000,,2013-06-14 18:22:00,
2013-06-14 14:32:00,90.0,72.0,-100.00,WNW,285,10.0,-999.0,55,0.00,,,-99.99,882.000000,,2013-06-14 18:32:00,
2013-06-14 14:43:00,90.0,72.0,-100.00,WNW,285,10.0,-999.0,55,0.00,,,-99.99,882.000000,,2013-06-14 18:43:00,
2013-06-14 14:52:00,90.0,71.0,-100.00,West,271,9.0,-999.0,54,0.00,,,-99.99,675.000000,,2013-06-14 18:52:00,
2013-06-14 15:01:00,90.0,71.0,-100.00,West,271,9.0,-999.0,54,0.00,,,-99.99,675.000000,,2013-06-14 19:01:00,
2013-06-14 15:11:00,89.0,72.0,-100.00,West,278,8.0,-999.0,57,0.00,,,-99.99,543.799988,,2013-06-14 19:11:00,
2013-06-14 15:22:00,89.0,72.0,-100.00,West,274,10.0,-999.0,58,0.00,,,-99.99,611.500000,,2013-06-14 19:22:00,
2013-06-14 15:32:00,89.0,72.0,-100.00,West,274,10.0,-999.0,58,0.00,,,-99.99,611.500000,,2013-06-14 19:32:00,
2013-06-14 15:43:00,89.0,72.0,-100.00,West,265,8.0,-999.0,58,0.00,,,-99.99,650.000000,,2013-06-14 19:43:00,
2013-06-14 15:53:00,89.0,72.0,-100.00,West,265,8.0,-999.0,58,0.00,,,-99.99,650.000000,,2013-06-14 19:53:00,
2013-06-14 16:02:00,89.0,72.0,-100.00,West,265,8.0,-999.0,58,0.00,,,-99.99,650.000000,,2013-06-14 20:02:00,
2013-06-14 16:11:00,89.0,71.0,-100.00,WNW,286,7.0,-999.0,56,0.00,,,-99.99,596.000000,,2013-06-14 20:11:00,
2013-06-14 16:22:00,90.0,71.0,-100.00,WNW,288,9.0,-999.0,55,0.00,,,-99.99,614.400024,,2013-06-14 20:22:00,
2013-06-14 16:33:00,90.0,71.0,-100.00,WNW,288,9.0,-999.0,55,0.00,,,-99.99,614.400024,,2013-06-14 20:33:00,
2013-06-14 16:43:00,90.0,71.0,-100.00,West,269,9.0,-999.0,54,0.00,,,-99.99,563.000000,,2013-06-14 20:43:00,
2013-06-14 16:53:00,90.0,71.0,-100.00,West,269,9.0,-999.0,54,0.00,,,-99.99,563.000000,,2013-06-14 20:53:00,
2013-06-14 17:02:00,90.0,71.0,-100.00,West,269,9.0,-999.0,54,0.00,,,-99.99,563.000000,,2013-06-14 21:02:00,
2013-06-14 17:12:00,90.0,71.0,-100.00,West,275,8.0,-999.0,53,0.00,,,-99.99,585.400024,,2013-06-14 21:12:00,
2013-06-14 17:22:00,90.0,70.0,-100.00,West,271,9.0,-999.0,52,0.00,,,-99.99,521.900024,,2013-06-14 21:22:00,
2013-06-14 17:34:00,89.0,72.0,-100.00,West,272,8.0,-999.0,56,0.00,,,-99.99,511.600006,,2013-06-14 21:34:00,
2013-06-14 17:42:00,88.0,71.0,-100.00,WSW,258,8.0,-999.0,58,0.00,,,-99.99,251.699997,,2013-06-14 21:42:00,
2013-06-14 17:52:00,88.0,71.0,-100.00,WSW,258,8.0,-999.0,58,0.00,,,-99.99,251.699997,,2013-06-14 21:52:00,
2013-06-14 18:02:00,88.0,72.0,-100.00,West,271,7.0,-999.0,58,0.00,,,-99.99,364.899994,,2013-06-14 22:02:00,
2013-06-14 18:12:00,88.0,72.0,-100.00,West,271,7.0,-999.0,58,0.00,,,-99.99,364.899994,,2013-06-14 22:12:00,
2013-06-14 18:22:00,88.0,71.0,-100.00,West,262,8.0,-999.0,57,0.00,,,-99.99,333.200012,,2013-06-14 22:22:00,
2013-06-14 18:33:00,88.0,71.0,-100.00,West,262,8.0,-999.0,57,0.00,,,-99.99,333.200012,,2013-06-14 22:33:00,
2013-06-14 18:43:00,88.0,71.0,-100.00,WSW,256,8.0,-999.0,58,0.00,,,-99.99,275.100006,,2013-06-14 22:43:00,
2013-06-14 18:53:00,87.0,71.0,-100.00,West,278,8.0,-999.0,59,0.00,,,-99.99,237.899994,,2013-06-14 22:53:00,
2013-06-14 19:02:00,87.0,71.0,-100.00,West,278,8.0,-999.0,59,0.00,,,-99.99,237.899994,,2013-06-14 23:02:00,
2013-06-14 19:12:00,87.0,71.0,-100.00,West,276,8.0,-999.0,59,0.00,,,-99.99,181.600006,,2013-06-14 23:12:00,
2013-06-14 19:22:00,86.0,71.0,-100.00,WNW,287,8.0,-999.0,60,0.00,,,-99.99,147.800003,,2013-06-14 23:22:00,
2013-06-14 19:33:00,86.0,71.0,-100.00,WNW,287,8.0,-999.0,60,0.00,,,-99.99,147.800003,,2013-06-14 23:33:00,
2013-06-14 19:43:00,86.0,72.0,-100.00,WNW,283,7.0,-999.0,63,0.00,,,-99.99,132.199997,,2013-06-14 23:43:00,
2013-06-14 19:52:00,85.0,71.0,-100.00,West,270,7.0,-999.0,64,0.00,,,-99.99,74.199997,,2013-06-14 23:52:00,
2013-06-14 20:01:00,84.0,71.0,-100.00,West,267,5.0,-999.0,65,0.00,,,-99.99,54.500000,,2013-06-15 00:01:00,
2013-06-14 20:11:00,83.0,71.0,-100.00,West,270,5.0,-999.0,67,0.00,,,-99.99,50.000000,,2013-06-15 00:11:00,
2013-06-14 20:23:00,83.0,71.0,-100.00,West,270,5.0,-999.0,67,0.00,,,-99.99,50.000000,,2013-06-15 00:23:00,
2013-06-14 20:34:00,82.0,71.0,-100.00,West,266,6.0,-999.0,67,0.00,,,-99.99,27.000000,,2013-06-15 00:34:00,
2013-06-14 20:43:00,81.0,71.0,-100.00,WSW,258,5.0,-999.0,69,0.00,,,-99.99,6.400000,,2013-06-15 00:43:00,
2013-06-14 20:53:00,81.0,71.0,-100.00,WSW,258,5.0,-999.0,69,0.00,,,-99.99,6.400000,,2013-06-15 00:53:00,
2013-06-14 21:01:00,81.0,71.0,-100.00,West,272,5.0,-999.0,71,0.00,,,-99.99,0.900000,,2013-06-15 01:01:00,
2013-06-14 21:11:00,80.0,71.0,-100.00,West,272,5.0,-999.0,73,0.00,,,-99.99,0.000000,,2013-06-15 01:11:00,
2013-06-14 21:22:00,80.0,71.0,-100.00,West,272,5.0,-999.0,73,0.00,,,-99.99,0.000000,,2013-06-15 01:22:00,
2013-06-14 21:33:00,80.0,71.0,-100.00,WNW,283,4.0,-999.0,75,0.00,,,-99.99,0.000000,,2013-06-15 01:33:00,
2013-06-14 21:43:00,79.0,72.0,-100.00,WNW,286,4.0,-999.0,78,0.00,,,-99.99,0.000000,,2013-06-15 01:43:00,
2013-06-14 21:54:00,79.0,72.0,-100.00,WNW,286,4.0,-999.0,78,0.00,,,-99.99,0.000000,,2013-06-15 01:54:00,
2013-06-14 22:02:00,78.0,72.0,-100.00,West,270,4.0,-999.0,80,0.00,,,-99.99,0.000000,,2013-06-15 02:02:00,
2013-06-14 22:11:00,78.0,72.0,-100.00,West,270,4.0,-999.0,80,0.00,,,-99.99,0.000000,,2013-06-15 02:11:00,
2013-06-14 22:23:00,78.0,72.0,-100.00,WSW,248,3.0,-999.0,81,0.00,,,-99.99,0.000000,,2013-06-15 02:23:00,
2013-06-14 22:33:00,78.0,72.0,-100.00,WSW,248,3.0,-999.0,81,0.00,,,-99.99,0.000000,,2013-06-15 02:33:00,
2013-06-14 22:43:00,77.0,72.0,-100.00,West,261,4.0,-999.0,82,0.00,,,-99.99,0.000000,,2013-06-15 02:43:00,
2013-06-14 22:53:00,77.0,72.0,-100.00,West,261,4.0,-999.0,82,0.00,,,-99.99,0.000000,,2013-06-15 02:53:00,
2013-06-14 23:01:00,77.0,72.0,-100.00,West,261,4.0,-999.0,82,0.00,,,-99.99,0.000000,,2013-06-15 03:01:00,
2013-06-14 23:11:00,77.0,72.0,-100.00,WSW,255,5.0,-999.0,83,0.00,,,-99.99,0.000000,,2013-06-15 03:11:00,
2013-06-14 23:24:00,77.0,72.0,-100.00,West,264,4.0,-999.0,84,0.00,,,-99.99,0.000000,,2013-06-15 03:24:00,
2013-06-14 23:32:00,77.0,72.0,-100.00,West,264,4.0,-999.0,84,0.00,,,-99.99,0.000000,,2013-06-15 03:32:00,
2013-06-14 23:44:00,77.0,72.0,-100.00,WSW,253,5.0,-999.0,85,0.00,,,-99.99,0.000000,,2013-06-15 03:44:00,
2013-06-14 23:53:00,77.0,72.0,-100.00,WSW,253,5.0,-999.0,85,0.00,,,-99.99,0.000000,,2013-06-15 03:53:00,